TATIANA 2

Satellite information

Favourite Embed

Satellite Type and Status

PAYLOADIN ORBIT

Key statistics

Satellite TATIANA 2 at a glance.

Uptime

5932

Days in orbit

Revolutions

≈ 14.2

Per day

Orbit

SSO

Sun Synchronous Orbit

Inclination

98.7

Latest

Satellite identification and parameters

Extended collection of information and parameters for TATIANA 2.

Object identification

Identified? True

Debris? False

Object name: TATIANA 2

International designator: 2009-049D

Object number (NORAD): 35868

Object ID (CCSDS): 35868

Country: COMMONWEALTH OF INDEPENDENT STATES (CIS)

Current information (Y/N): Y

RCS size: MEDIUM

Orbital parameters

Period: 101.114 minutes

Inclination: 98.6929 deg

SMA: 7189.559 km

Apoapsis: 815.07 km

Periapsis: 807.778 km

RAAN: 304.7643 deg

Eccentricy: 0.00050713

Argument of periapsis: 93.9349 deg

Mean anomaly: 266.241 deg

Mean motion: 14.24129108 rev/day

Mean motion (dot): 0.00000373 rev/day2

B* drag term: 0.00018114736 1/REarth

Two-line elements (TLE)

Creation date: Dec. 12, 2025, 3:16 a.m.

Reference frame: TEME

Reference center: EARTH

Epoch: Dec. 11, 2025, 8:18 p.m. UTC

TLE line 0: 0 TATIANA 2

TLE line 1: 1 35868U 09049D 25345.84647539 .00000373 00000-0 18115-3 0 9999

TLE line 2: 2 35868 98.6929 304.7643 0005071 93.9349 266.2410 14.24129108843022

Live tracking on map

Real-time ground track for satellite TATIANA 2.

In-orbit conjunctions

There are no conjunctions computed for TATIANA 2, at the moment. Check back to stay up to date, as we update our databases every day.

Go to all conjunctions

Associated space launch

Russian meteorology satellite

TATIANA 2 was lifted into orbit during the mission ‘Soyuz 2.1b/Fregat | Meteor-M 1’, on board a Soyuz 2.1b/Fregat space rocket.

The launch took place on Sept. 17, 2009, 3:55 p.m. from 31/6.

For more information about the launch, click the button.

Launch to space Soyuz 2.1b/Fregat | Meteor-M 1
Soyuz 2.1b/Fregat | Meteor-M 1

Agency: N/A

Status: Launch Successful

Launch date: Sept. 17, 2009, 3:55 p.m. UTC

Rocket: Soyuz 2.1b/Fregat

Launch pad: 31/6

Location: Baikonur Cosmodrome, Republic of Kazakhstan

...

Latest news about this satellite

There are no fresh news available about this satellite. Check back as we update our databases every day.


Newsletter sign-up

Weekly statistics, charts and insights to help you stay on top of the space industry.